TimeEDT,TemperatureF,Dew PointF,Humidity,Sea Level PressureIn,VisibilityMPH,Wind Direction,Wind SpeedMPH,Gust SpeedMPH,PrecipitationIn,Events,Conditions,WindDirDegrees,DateUTC
12:56 AM,43.0,42.1,97,30.14,10.0,Calm,Calm,-,N/A,,Clear,0,2012-09-25 04:56:00
1:56 AM,42.1,41.0,96,30.14,10.0,Calm,Calm,-,N/A,,Clear,0,2012-09-25 05:56:00
2:56 AM,41.0,39.9,96,30.14,10.0,Calm,Calm,-,N/A,,Clear,0,2012-09-25 06:56:00
3:56 AM,41.0,39.0,93,30.14,10.0,Calm,Calm,-,N/A,,Clear,0,2012-09-25 07:56:00
4:56 AM,41.0,39.0,93,30.15,10.0,Calm,Calm,-,N/A,,Clear,0,2012-09-25 08:56:00
5:56 AM,39.0,37.9,96,30.17,10.0,Calm,Calm,-,N/A,,Clear,0,2012-09-25 09:56:00
6:56 AM,41.0,39.0,93,30.19,10.0,Calm,Calm,-,N/A,,Clear,0,2012-09-25 10:56:00
7:56 AM,50.0,48.0,93,30.20,9.0,Calm,Calm,-,N/A,,Clear,0,2012-09-25 11:56:00
8:56 AM,62.1,48.0,60,30.21,10.0,SW,9.2,-,N/A,,Clear,230,2012-09-25 12:56:00
9:56 AM,64.9,46.9,52,30.20,10.0,SSW,13.8,-,N/A,,Clear,210,2012-09-25 13:56:00
10:56 AM,66.9,45.0,45,30.19,10.0,SW,15.0,-,N/A,,Clear,220,2012-09-25 14:56:00
11:56 AM,68.0,44.1,42,30.19,10.0,SW,18.4,26.5,N/A,,Clear,220,2012-09-25 15:56:00
12:56 PM,70.0,50.0,49,30.17,10.0,SSW,15.0,-,N/A,,Clear,210,2012-09-25 16:56:00
1:56 PM,69.1,50.0,51,30.16,10.0,SSW,16.1,27.6,N/A,,Clear,210,2012-09-25 17:56:00
2:56 PM,69.8,50.0,49,30.16,10.0,SW,17.3,29.9,N/A,,Clear,220,2012-09-25 18:56:00
3:56 PM,68.0,52.0,56,30.16,10.0,SW,20.7,26.5,N/A,,Scattered Clouds,220,2012-09-25 19:56:00
4:56 PM,68.0,52.0,56,30.17,10.0,SW,20.7,28.8,N/A,,Scattered Clouds,230,2012-09-25 20:56:00
5:56 PM,66.0,53.1,63,30.17,10.0,SW,15.0,27.6,N/A,,Scattered Clouds,220,2012-09-25 21:56:00
6:56 PM,64.9,52.0,63,30.17,10.0,SSW,16.1,-,N/A,,Clear,210,2012-09-25 22:56:00
7:56 PM,64.9,52.0,63,30.18,10.0,SSW,13.8,25.3,N/A,,Clear,210,2012-09-25 23:56:00
8:56 PM,64.9,51.1,61,30.18,10.0,SSW,13.8,24.2,N/A,,Clear,210,2012-09-26 00:56:00
9:56 PM,64.9,54.0,68,30.18,10.0,SSW,11.5,19.6,N/A,,Clear,210,2012-09-26 01:56:00
10:56 PM,64.4,55.4,73,30.18,10.0,SSW,12.7,21.9,N/A,,Partly Cloudy,210,2012-09-26 02:56:00
11:56 PM,64.9,54.0,68,30.17,10.0,SSW,16.1,21.9,N/A,,Clear,210,2012-09-26 03:56:00